This demonstration page uses our WeatherBlox Daily Observations layout. Learn more.

Left ArrowRight Arrow

44.31136, -96.79839

Hourly Observations for August 11, 2017

Temp ( °F °C ) Dew Point ( °F °C ) Humidity (%) Winds ( mph kmh ) Pressure ( in mb ) Visibility ( mi km ) Precip ( " mm )
12:56 am 00:56 Clear 57 13.9 56 13.3 96 96 Calm 30.18 1022 N/A 0.00 0.00
1:56 am 01:56 Clear 57 13.9 57 13.9 100 100 Calm 30.18 1022 N/A 0.00 0.00
2:56 am 02:56 Clear 55 12.8 54 12.2 96 96 Calm 30.19 1022 N/A 0.00 0.00
3:56 am 03:56 Clear 54 12.2 53 11.7 97 97 Calm 30.19 1023 N/A 0.00 0.00
4:56 am 04:56 Clear 55 12.8 54 12.2 96 96 Calm 30.19 1022 N/A 0.00 0.00
5:56 am 05:56 Clear 52 11.1 51 10.6 97 97 Calm 30.20 1023 N/A 0.00 0.00
6:56 am 06:56 Mostly Sunny 54 12.2 53 11.7 97 97 Calm 30.21 1023 N/A 0.00 0.00
7:10 am 07:10 Mostly Cloudy 54 12 54 12 100 100 Calm 30.18 1022 N/A 0.00 0.00
7:49 am 07:49 Partly Cloudy 55 13 55 13 100 100 Calm 30.18 1022 N/A 0.00 0.00
7:56 am 07:56 Partly Cloudy 57 13.9 56 13.3 96 96 Calm 30.21 1023 N/A 0.00 0.00
8:09 am 08:09 Mostly Cloudy 57 14 57 14 100 100 Calm 30.18 1022 N/A 0.00 0.00
8:56 am 08:56 Mostly Cloudy 59 15 58 14.4 96 96 Calm 30.22 1023 N/A 0.00 0.00
9:19 am 09:19 Mostly Sunny 61 16 61 16 100 100 Calm 30.18 1022 N/A 0.00 0.00
9:56 am 09:56 Sunny 64 17.8 60 15.6 87 87 Calm 30.22 1024 N/A 0.00 0.00
10:56 am 10:56 Sunny 68 20 59 15 73 73 VRB 3 6 30.22 1023 N/A 0.00 0.00
11:56 am 11:56 Mostly Sunny 70 21.1 58 14.4 66 66 VRB 5 7 30.21 1023 N/A 0.00 0.00
12:56 pm 12:56 Partly Cloudy 72 22.2 58 14.4 61 61 W 6 9 30.20 1023 N/A 0.00 0.00
1:56 pm 13:56 Mostly Sunny 73 22.8 55 12.8 53 53 N 6 9 30.19 1022 N/A 0.00 0.00
2:56 pm 14:56 Partly Cloudy 74 23.3 57 13.9 56 56 N 9 15 30.18 1022 N/A 0.00 0.00
3:56 pm 15:56 Sunny 74 23.3 56 13.3 54 54 Calm 30.17 1022 N/A 0.00 0.00
4:56 pm 16:56 Sunny 75 23.9 54 12.2 48 48 NE 5 7 30.15 1021 N/A 0.00 0.00
5:56 pm 17:56 Mostly Sunny 75 23.9 56 13.3 52 52 E 6 9 30.14 1021 N/A 0.00 0.00
6:56 pm 18:56 Partly Cloudy 74 23.3 55 12.8 52 52 E 7 11 30.14 1021 N/A 0.00 0.00
7:56 pm 19:56 Cloudy 71 21.7 58 14.4 63 63 ESE 8 13 30.15 1021 N/A 0.00 0.00
8:56 pm 20:56 Mostly Clear 67 19.4 59 15 76 76 SSE 6 9 30.15 1021 N/A 0.00 0.00
9:56 pm 21:56 Clear 66 18.9 59 15 78 78 SSE 6 9 30.15 1021 N/A 0.00 0.00
10:56 pm 22:56 Mostly Cloudy 64 17.8 59 15 84 84 SE 6 9 30.15 1021 N/A 0.00 0.00
11:56 pm 23:56 Mostly Cloudy 63 17.2 58 14.4 84 84 SE 5 7 30.14 1021 N/A 0.00 0.00

Powered by AerisWeather